Location: Campo Alegre
(10.1673°N, 67.4431°W)
Time: 04:12:43
(UTC+00:00)

Cosmos 2266 Rocket - Pass Details

Date: 14 April 2024
Orbit: 934 x 1006 km, 82.9° (Epoch: 21 May)

Event Time Altitude Azimuth Distance (km) Brightness Sun altitude
Exits shadow 08:34:30 37° 190° (S) 1,450 4.6 -26.0°
Maximum altitude 08:37:07 82° 273° (W) 970 3.8 -25.4°
Drops below altitude 10° 08:43:13 10° 1° (N) 2,661 6.5 -24.0°
Sets 08:45:41 0° 2° (N) 3,598 7.2 -23.4°
